EW9945 Weather Reports


Display with metric or nautical units.
time (UTC)temp
F
wind
direction
speed
MPH
gust
MPH
rain 1hr
in
rain 24hr
in
rain mn
in
humidity
%
barometer
mb
20260903211515 84 294 2.0 9.0 0.00 0.53 0.01 64 1011.2
20260903210006 86 317 4.0 6.0 0.00 0.53 0.01 63 1011.1
20260903204506 85 312 0.0 7.0 0.00 0.53 0.01 65 1011.1
20260903203004 85 333 2.0 9.0 0.00 0.53 0.01 66 1011.2
20260903201505 84 299 0.0 5.0 0.00 0.53 0.01 65 1011.3
20260903200003 85 290 2.0 5.0 0.00 0.53 0.01 61 1011.6
20260903194502 86 246 0.0 9.0 0.00 0.53 0.01 59 1011.7
20260903193101 86 306 3.0 8.0 0.00 0.53 0.01 59 1011.7
20260903191600 87 309 5.0 9.0 0.00 0.53 0.01 57 1011.8
20260903190100 86 301 2.0 9.0 0.00 0.54 0.01 58 1012.0
20260903184603 86 279 3.0 10.0 0.00 0.54 0.01 58 1012.1
20260903183054 85 148 1.0 8.0 0.00 0.54 0.01 61 1012.2
20260903181552 84 308 0.0 4.0 0.00 0.54 0.01 64 1012.3
20260903180100 84 266 0.0 6.0 0.00 0.54 0.01 67 1012.6
20260903174605 84 327 0.0 4.0 0.00 0.54 0.01 66 1012.7
20260903173044 83 325 2.0 8.0 0.00 0.54 0.01 67 1013.0
20260903171541 82 311 2.0 9.0 0.00 0.54 0.01 69 1013.0
20260903170103 81 327 3.0 7.0 0.00 0.54 0.01 71 1013.0
20260903164548 81 322 1.0 10.0 0.00 0.54 0.01 71 1013.2
20260903163039 81 305 2.0 6.0 0.00 0.54 0.01 70 1013.5
20260903161536 80 309 2.0 6.0 0.00 0.54 0.01 72 1013.7
20260903160034 78 294 2.0 7.0 0.00 0.54 0.01 75 1013.9
20260903154532 78 296 0.0 5.0 0.00 0.54 0.01 76 1014.0
20260903153027 76 248 0.0 9.0 0.00 0.54 0.01 78 1014.1
20260903151527 76 308 2.0 6.0 0.00 0.54 0.01 77 1014.3
20260903150028 75 320 2.0 7.0 0.00 0.55 0.01 79 1014.5
20260903144524 75 312 2.0 7.0 0.00 0.55 0.01 80 1014.1
20260903143023 74 306 3.0 7.0 0.00 0.55 0.01 81 1014.1
20260903141522 73 297 0.0 5.0 0.00 0.55 0.01 84 1014.0
20260903140017 72 46 0.0 2.0 0.00 0.68 0.01 86 1014.2
20260903134512 70 169 0.0 7.0 0.00 0.68 0.01 90 1014.2
20260903133009 69 331 0.0 2.0 0.00 0.68 0.01 90 1014.5
20260903131507 68 323 0.0 3.0 0.00 0.70 0.01 92 1014.8
20260903130004 67 293 0.0 0.0 0.00 0.70 0.01 92 1015.2
20260903124504 66 293 0.0 7.0 0.00 0.70 0.01 92 1015.2
20260903123003 66 44 0.0 1.0 0.00 0.70 0.01 92 1015.3
20260903121604 66 44 0.0 3.0 0.00 0.70 0.01 92 1014.9
20260903120059 66 42 0.0 2.0 0.00 0.70 0.01 93 1014.8
20260903114604 66 42 0.0 0.0 0.01 0.70 0.01 93 1014.8
20260903113058 66 42 0.0 0.0 0.01 0.70 0.01 93 1014.4
20260903111623 65 42 0.0 0.0 0.01 0.70 0.01 93 1014.3
20260903110108 65 42 0.0 0.0 0.01 0.70 0.01 93 1014.2
20260903104622 65 42 0.0 0.0 0.00 0.69 0.00 92 1013.9
20260903103054 65 42 0.0 0.0 0.00 0.69 0.00 93 1013.6
20260903101551 66 42 0.0 1.0 0.00 0.69 0.00 93 1013.5
20260903100050 66 42 0.0 0.0 0.00 0.69 0.00 92 1013.2
20260903094555 66 42 0.0 0.0 0.01 0.69 0.00 92 1013.5
20260903093047 66 42 0.0 0.0 0.02 0.69 0.00 92 1014.2
20260903091543 66 42 0.0 3.0 0.02 0.69 0.00 92 1014.4
20260903090048 66 40 0.0 3.0 0.03 0.69 0.69 92 1014.5
20260903084543 67 39 0.0 0.0 0.02 0.68 0.68 92 1014.6
20260903083042 66 41 0.0 2.0 0.02 0.67 0.67 92 1014.2
20260903081543 67 304 0.0 4.0 0.02 0.67 0.67 92 1014.0
20260903080041 67 142 1.0 14.0 0.01 0.66 0.66 92 1013.0
20260903074540 66 155 0.0 7.0 0.02 0.66 0.66 92 1013.3
20260903073045 66 108 4.0 11.0 0.04 0.66 0.66 92 1013.7
20260903071539 66 270 2.0 7.0 0.06 0.65 0.65 92 1014.6
20260903070043 66 128 0.0 5.0 0.06 0.65 0.65 92 1014.3
20260903064538 66 291 0.0 0.0 0.06 0.65 0.65 92 1015.0
20260903063038 66 292 0.0 2.0 0.04 0.63 0.63 92 1015.4
20260903061555 67 286 0.0 4.0 0.01 0.59 0.59 92 1014.8
20260903060037 67 159 0.0 3.0 0.03 0.59 0.59 92 1014.0
20260903054536 67 147 0.0 6.0 0.05 0.59 0.59 91 1014.2
20260903053041 67 296 1.0 5.0 0.14 0.59 0.59 91 1014.5
20260903051540 68 126 7.0 14.0 0.15 0.57 0.57 91 1014.0
20260903050038 67 150 2.0 9.0 0.15 0.56 0.56 92 1014.8
20260903044536 67 156 1.0 9.0 0.12 0.54 0.54 93 1015.0
20260903043040 66 114 3.0 14.0 0.07 0.49 0.49 92 1016.0
20260903041540 66 132 0.0 0.0 0.01 0.43 0.43 92 1015.3
20260903040038 66 132 0.0 2.0 0.00 0.42 0.42 92 1015.5
20260903034536 66 132 0.0 0.0 0.00 0.42 0.42 92 1015.3
20260903033038 66 132 1.0 4.0 0.00 0.42 0.42 92 1015.5
20260903031542 67 132 0.0 1.0 0.00 0.42 0.42 92 1016.2
20260903030104 66 132 0.0 5.0 0.01 0.42 0.42 92 1016.3
20260903024538 67 131 0.0 0.0 0.25 0.42 0.42 92 1016.0
20260903023037 67 130 0.0 6.0 0.25 0.42 0.42 91 1015.8
20260903021536 67 146 1.0 6.0 0.25 0.42 0.42 91 1014.3
20260903020034 68 28 0.0 10.0 0.25 0.42 0.42 89 1015.2
20260903014533 72 328 10.0 14.0 0.00 0.17 0.17 91 1016.5
20260903013041 72 165 0.0 7.0 0.00 0.17 0.17 91 1015.4
20260903011532 72 117 0.0 1.0 0.00 0.17 0.17 91 1015.2
20260903010036 72 117 0.0 1.0 0.00 0.17 0.17 91 1014.1
20260903004531 72 115 0.0 0.0 0.00 0.17 0.17 91 1014.2
20260903003037 72 169 0.0 7.0 0.00 0.17 0.17 90 1013.6
20260903001532 73 115 3.0 13.0 0.00 0.17 0.17 90 1012.6
20260903000031 73 156 0.0 7.0 0.00 0.17 0.17 90 1013.3
20260902234529 74 198 0.0 13.0 0.00 0.17 0.17 88 1013.6
20260902233029 75 153 0.0 3.0 0.00 0.17 0.17 87 1014.0
20260902231531 75 151 0.0 0.0 0.00 0.17 0.17 87 1014.0
20260902230028 75 151 0.0 0.0 0.00 0.17 0.17 86 1013.9
20260902224544 76 112 0.0 0.0 0.00 0.17 0.17 86 1013.3
20260902223027 76 117 1.0 7.0 0.00 0.17 0.17 85 1013.1
20260902221534 76 130 0.0 6.0 0.00 0.17 0.17 85 1013.6
20260902220046 77 196 0.0 7.0 0.00 0.18 0.17 84 1013.6
20260902214522 77 128 0.0 7.0 0.00 0.18 0.17 83 1013.9
20260902213022 77 123 1.0 9.0 0.00 0.18 0.17 83 1014.2